Hourly Data Report for May 12, 2020

TORONTO CITY
ONTARIO
Current Station Operator: ECCC - MSC

43°40'00.000" N
79°24'00.000" W
112.50 m
6158355
71508
XTO

Download Data

Hourly Data (May 2020)
Hourly Data Report for May 12, 2020
TIME
LST
Temp Definition
°C
Dew Point Definition
°C
Rel Hum Definition
%
Precip. Amount Definition
mm

Wind Dir Definition
10's deg

Wind Spd Definition
km/h
Visibility Definition
km
Stn Press Definition
kPa
Hmdx Definition


Wind Chill Definition


Weather Definition


00:00 1.6 -5.9 57 0.0       100.45     LegendNANA
01:00 0.9 -5.4 63 0.0       100.46     LegendNANA
02:00 0.5 -5.6 63 0.0       100.45     LegendNANA
03:00 0.0 -5.1 68 0.0       100.49     LegendNANA
04:00 -0.2 -5.5 67 0.0       100.50     LegendNANA
05:00 -0.1 -5.6 66 0.0       100.51     LegendNANA
06:00 0.5 -5.1 66 0.0       100.56     LegendNANA
07:00 2.0 -4.6 62 0.0       100.59     LegendNANA
08:00 3.7 -5.6 51 0.0       100.60     LegendNANA
09:00 5.4 -8.4 36 0.0       100.57     LegendNANA
10:00 7.8 -7.7 32 0.0       100.57     LegendNANA
11:00 8.3 -9.9 26 0.0       100.54     LegendNANA
12:00 8.1 -10.2 26 0.5       100.52     LegendNANA
13:00 8.0 -8.3 31 0.0       100.51     LegendNANA
14:00 7.5 -7.0 35 0.2       100.53     LegendNANA
15:00 7.6 -5.9 38 0.0       100.57     LegendNANA
16:00 7.5 -6.8 35 0.0       100.61     LegendNANA
17:00 8.0 -5.7 37 0.2       100.65     LegendNANA
18:00 8.1 -6.1 36 0.0       100.67     LegendNANA
19:00 7.9 -7.1 34 0.0       100.72     LegendNANA
20:00 6.5 -6.4 39 0.2       100.77     LegendNANA
21:00 5.3 -6.0 44 0.0       100.85     LegendNANA
22:00 4.2 -6.3 47 0.0       100.91     LegendNANA
23:00 3.5 -7.5 45 0.0       100.97     LegendNANA

Notes on Data Quality.

Legend

  • E = Estimated
  • M = Missing
  • NA = Not Available*
  • [empty] = Indicates an unobserved value
Date modified: